EW9766 Weather Reports


time (UTC)temp
F
wind
direction
speed
knots
gust
knots
rain 1hr
in
rain 24hr
in
rain mn
in
humidity
%
barometer
mb
20260509051530 50 56 2.6 6.1 0.00 0.00 0.00 71 1023.4
20260509050035 50 72 1.7 4.3 0.00 0.00 0.00 69 1023.3
20260509044536 51 15 2.6 7.0 0.00 0.00 0.00 68 1023.1
20260509043036 51 325 3.5 6.1 0.00 0.00 0.00 66 1023.1
20260509041643 52 303 2.6 6.1 0.00 0.00 0.00 64 1022.9
20260509040028 53 281 3.5 9.6 0.00 0.00 0.00 64 1022.6
20260509034530 53 280 5.2 13.0 0.00 0.00 0.00 62 1022.4
20260509033032 54 275 5.2 11.3 0.00 0.00 0.00 61 1022.2
20260509031536 54 272 5.2 10.4 0.00 0.00 0.00 59 1022.1
20260509030029 55 275 5.2 13.9 0.00 0.00 0.00 57 1021.9
20260509024643 56 268 6.1 15.6 0.00 0.00 0.00 54 1021.8
20260509023051 58 262 6.1 15.6 0.00 0.00 0.00 51 1021.6
20260509021532 58 257 6.1 15.6 0.00 0.00 0.00 48 1021.6
20260509014529 61 235 6.1 17.4 0.00 0.00 0.00 45 1021.5
20260509013032 61 236 7.8 17.4 0.00 0.00 0.00 43 1021.4
20260509011531 62 239 7.8 19.1 0.00 0.00 0.00 41 1021.4
20260509010035 64 226 7.8 19.1 0.00 0.00 0.00 40 1021.4
20260509004530 64 236 6.1 17.4 0.00 0.00 0.00 39 1021.4
20260509003032 64 223 7.0 16.5 0.00 0.00 0.00 38 1021.4
20260509001536 65 270 7.8 17.4 0.00 0.00 0.00 36 1021.1
20260508234535 66 265 7.8 20.9 0.00 0.00 0.00 35 1020.8
20260508233036 67 261 5.2 13.9 0.00 0.00 0.00 34 1020.9
20260508231537 67 262 5.2 15.6 0.00 0.00 0.00 32 1020.8
20260508230031 67 263 7.8 17.4 0.00 0.00 0.00 31 1020.6
20260508224643 68 269 6.1 18.2 0.00 0.00 0.00 29 1020.7
20260508223033 69 250 4.3 12.2 0.00 0.00 0.00 28 1020.6
20260508220033 69 255 5.2 13.0 0.00 0.00 0.00 26 1020.5
20260508213033 70 258 5.2 19.1 0.00 0.00 0.00 25 1020.4
20260508211535 70 276 5.2 15.6 0.00 0.00 0.00 24 1020.3
20260508204534 69 272 5.2 11.3 0.00 0.00 0.00 22 1020.2
20260508203037 69 247 6.1 20.9 0.00 0.00 0.00 23 1020.1
20260508201537 67 257 7.0 19.1 0.00 0.00 0.00 24 1020.0
20260508191535 66 227 10.4 24.3 0.00 0.00 0.00 24 1020.0
20260508183032 58 330 4.3 8.7 0.00 0.00 0.00 54 1019.9
20260508181531 54 349 2.6 6.1 0.00 0.00 0.00 60 1019.9
20260508174535 52 326 1.7 4.3 0.00 0.00 0.00 63 1020.0
20260508171531 52 360 1.7 3.5 0.00 0.00 0.00 64 1019.6
20260508170029 52 321 0.9 5.2 0.00 0.00 0.00 65 1019.6
20260508164536 52 334 1.7 5.2 0.00 0.00 0.00 65 1019.5
20260508163035 52 8 4.3 7.0 0.00 0.00 0.00 65 1019.7
20260508161531 53 352 7.0 11.3 0.00 0.00 0.00 65 1019.6
20260508160032 54 2 7.0 12.2 0.00 0.00 0.00 65 1019.5
20260508154608 54 1 7.8 13.9 0.00 0.00 0.00 65 1019.3
20260508153031 56 355 7.0 13.9 0.00 0.00 0.00 63 1019.1
20260508150034 54 347 0.9 5.2 0.00 0.00 0.00 65 1019.0
20260508143031 49 66 0.0 3.5 0.00 0.00 0.00 68 1018.6
20260508141528 48 130 1.7 4.3 0.00 0.00 0.00 68 1018.4
20260508140031 47 132 2.6 5.2 0.00 0.00 0.00 67 1018.2
20260508134530 46 143 2.6 5.2 0.00 0.00 0.00 67 1018.2
20260508133034 45 142 2.6 5.2 0.00 0.00 0.00 67 1018.1
20260508131535 45 169 2.6 5.2 0.00 0.00 0.00 66 1017.9
20260508130033 44 122 1.7 5.2 0.00 0.00 0.00 66 1017.7
20260508124538 43 133 2.6 6.1 0.00 0.00 0.00 64 1017.8
20260508123034 43 159 2.6 5.2 0.00 0.00 0.00 63 1017.8
20260508121531 42 159 2.6 6.1 0.00 0.00 0.00 63 1017.6
20260508120031 43 152 1.7 4.3 0.00 0.00 0.00 62 1017.6
20260508114532 43 143 2.6 5.2 0.00 0.00 0.00 58 1017.6
20260508113107 44 165 2.6 6.1 0.00 0.00 0.00 55 1017.5
20260508111535 45 162 2.6 5.2 0.00 0.00 0.00 55 1017.4
20260508110107 45 141 3.5 6.1 0.00 0.00 0.00 54 1017.3
20260508103151 43 138 5.2 8.7 0.00 0.00 0.00 56 1017.3
20260508103142 43 145 4.3 7.0 0.00 0.00 0.00 57 1017.4
20260508100032 43 142 4.3 7.0 0.00 0.00 0.00 57 1017.3
20260508094536 44 158 5.2 7.8 0.00 0.00 0.00 57 1017.3
20260508093034 44 138 4.3 7.8 0.00 0.00 0.00 58 1017.3
20260508091605 44 154 5.2 7.8 0.00 0.00 0.00 58 1017.3
20260508090031 44 165 5.2 7.8 0.00 0.00 0.00 58 1017.3
20260508084644 44 147 4.3 6.1 0.00 0.00 0.00 58 1017.3
20260508083034 44 153 4.3 7.8 0.00 0.00 0.00 58 1017.4
20260508081607 45 146 4.3 7.0 0.00 0.00 0.00 57 1017.4
20260508080037 46 152 4.3 7.0 0.00 0.00 0.00 57 1017.4
20260508074533 45 145 5.2 7.0 0.00 0.00 0.00 57 1017.4
20260508073035 45 157 5.2 7.8 0.00 0.00 0.00 58 1017.5
20260508071532 45 158 3.5 6.1 0.00 0.00 0.00 58 1017.5
20260508070030 44 151 5.2 7.8 0.00 0.00 0.00 58 1017.5
20260508064531 43 157 4.3 7.0 0.00 0.00 0.00 59 1017.6
20260508063036 43 162 3.5 6.1 0.00 0.00 0.00 59 1017.6
20260508061536 44 156 3.5 5.2 0.00 0.00 0.00 57 1017.7